TimeCST,TemperatureF,Dew PointF,Humidity,Sea Level PressureIn,VisibilityMPH,Wind Direction,Wind SpeedMPH,Gust SpeedMPH,PrecipitationIn,Events,Conditions,WindDirDegrees,DateUTC
12:03 AM,1.9,-5.1,72,30.46,2.5,North,18.4,26.5,0.00,Snow,Light Snow,360,2014-02-05 06:03:00
12:53 AM,1.9,-4.0,76,30.62,3.0,North,15.0,-,0.00,Snow,Light Snow,350,2014-02-05 06:53:00
1:53 AM,3.0,-4.0,73,30.63,3.0,North,15.0,-,0.00,Snow,Light Snow,350,2014-02-05 07:53:00
2:11 AM,3.0,-4.0,73,30.48,2.5,North,16.1,-,0.00,Snow,Light Snow,350,2014-02-05 08:11:00
2:30 AM,3.0,-4.0,73,30.48,3.0,North,15.0,-,0.00,Snow,Light Snow,350,2014-02-05 08:30:00
2:53 AM,3.0,-4.0,73,30.64,4.0,North,12.7,-,0.00,Snow,Light Snow,350,2014-02-05 08:53:00
3:53 AM,3.0,-2.9,76,30.66,5.0,North,11.5,-,0.00,,Overcast,350,2014-02-05 09:53:00
4:12 AM,1.9,-2.9,80,30.50,7.0,North,9.2,-,0.00,,Overcast,350,2014-02-05 10:12:00
4:53 AM,1.9,-5.1,72,30.68,10.0,North,13.8,-,0.00,,Partly Cloudy,350,2014-02-05 10:53:00
5:53 AM,-0.0,-6.0,76,30.70,10.0,North,10.4,-,0.00,,Clear,350,2014-02-05 11:53:00
6:53 AM,-0.9,-8.0,72,30.72,10.0,NNW,11.5,-,N/A,,Clear,340,2014-02-05 12:53:00
7:53 AM,-4.0,-9.0,79,30.73,10.0,NNW,8.1,-,N/A,,Clear,330,2014-02-05 13:53:00
8:53 AM,-2.0,-8.0,76,30.76,10.0,NNW,11.5,-,0.00,,Clear,330,2014-02-05 14:53:00
9:53 AM,1.0,-9.0,63,30.77,10.0,NNW,15.0,-,0.00,,Clear,340,2014-02-05 15:53:00
10:53 AM,3.0,-8.0,60,30.78,10.0,NNW,17.3,-,N/A,,Clear,340,2014-02-05 16:53:00
11:53 AM,3.9,-7.1,60,30.76,10.0,North,18.4,28.8,N/A,,Clear,350,2014-02-05 17:53:00
12:53 PM,6.1,-8.0,53,30.75,10.0,North,17.3,26.5,N/A,,Clear,350,2014-02-05 18:53:00
1:53 PM,7.0,-6.0,55,30.73,10.0,NNW,18.4,-,N/A,,Clear,340,2014-02-05 19:53:00
2:53 PM,8.1,-5.1,55,30.71,10.0,NW,19.6,27.6,N/A,,Mostly Cloudy,320,2014-02-05 20:53:00
3:53 PM,8.1,-5.1,55,30.73,10.0,NNW,15.0,25.3,N/A,,Mostly Cloudy,330,2014-02-05 21:53:00
4:53 PM,6.1,-7.1,55,30.74,10.0,NNW,17.3,-,N/A,,Clear,330,2014-02-05 22:53:00
5:53 PM,1.9,-9.0,60,30.74,10.0,North,11.5,-,N/A,,Clear,350,2014-02-05 23:53:00
6:53 PM,-2.9,-11.0,68,30.76,10.0,NNW,5.8,-,N/A,,Clear,330,2014-02-06 00:53:00
7:53 PM,-7.1,-14.1,72,30.78,10.0,NW,6.9,-,N/A,,Clear,310,2014-02-06 01:53:00
8:53 PM,-6.0,-15.0,65,30.78,10.0,NW,6.9,-,N/A,,Clear,310,2014-02-06 02:53:00
9:53 PM,-6.0,-14.1,68,30.77,10.0,WNW,8.1,-,N/A,,Clear,300,2014-02-06 03:53:00
10:53 PM,-9.0,-15.0,75,30.77,10.0,Calm,Calm,-,N/A,,Clear,0,2014-02-06 04:53:00
11:53 PM,-11.9,-18.0,74,30.76,10.0,NNW,3.5,-,N/A,,Clear,330,2014-02-06 05:53:00